User: anonymous   Login
Location: Unspecified
(0.0000°N, 0.0000°E)
Time: 18:47:58
(UTC+00:00)
Language:

CERISE - Orbit

View from above orbital plane
View from above orbital plane
View from above satellite
View from above satellite

Ground track
Ground track

The orbit data is extracted from the following two-line orbital elements,

1 23606U 95033B   17145.92038838 +.00000670 +00000-0 +68406-4 0  9997
2 23606 098.2532 085.7888 0006065 036.9793 323.1843 14.94215643183089
Epoch (UTC): 25 May 2017 22:05:21
Eccentricity: 0.0006065
inclination: 98.2532°
perigee height: 580 km
apogee height: 589 km
right ascension of ascending node: 85.7888°
argument of perigee: 36.9793°
revolutions per day: 14.94215643
mean anomaly at epoch: 323.1843°
orbit number at epoch: 18308

The dashed part of the orbit path shows where the satellite is in the earth's shadow,  

DLR